DB0LC-2 Weather Reports


time (UTC)temp
C
wind
direction
speed
KPH
gust
KPH
rain 1hr
cm
rain 24hr
cm
rain mn
cm
humidity
%
barometer
mb
20260506132515 19 0 0.0 0.0 0.00 0.00 0.00 33 903.3
20260506131516 19 0 0.0 0.0 0.00 0.00 0.00 31 903.4
20260506130458 20 0 0.0 0.0 0.00 0.00 0.00 32 903.3
20260506124430 19 0 0.0 0.0 0.00 0.00 0.00 33 903.2
20260506123426 19 0 0.0 0.0 0.00 0.00 0.00 31 903.4
20260506121402 20 0 0.0 0.0 0.00 0.00 0.00 32 903.4
20260506120410 19 0 0.0 0.0 0.00 0.00 0.00 32 903.4
20260506115350 19 0 0.0 0.0 0.00 0.00 0.00 32 903.4
20260506114353 20 0 0.0 0.0 0.00 0.00 0.00 31 903.0
20260506113338 20 0 0.0 0.0 0.00 0.00 0.00 32 902.9
20260506112339 19 0 0.0 0.0 0.00 0.00 0.00 32 902.8
20260506111317 19 0 0.0 0.0 0.00 0.00 0.00 33 903.0
20260506105252 20 0 0.0 0.0 0.00 0.00 0.00 32 903.1
20260506104230 20 0 0.0 0.0 0.00 0.00 0.00 32 903.3
20260506103200 19 0 0.0 0.0 0.00 0.00 0.00 32 903.3
20260506102148 19 0 0.0 0.0 0.00 0.00 0.00 32 903.5
20260506101139 18 0 0.0 0.0 0.00 0.00 0.00 32 903.5
20260506100136 20 0 0.0 0.0 0.00 0.00 0.00 32 903.3
20260506095137 19 0 0.0 0.0 0.00 0.00 0.00 32 903.3
20260506094137 19 0 0.0 0.0 0.00 0.00 0.00 32 903.4
20260506091100 19 0 0.0 0.0 0.00 0.00 0.00 32 903.3
20260506091059 19 0 0.0 0.0 0.00 0.00 0.00 32 903.4
20260506090035 19 0 0.0 0.0 0.00 0.00 0.00 32 903.5
20260506085010 19 0 0.0 0.0 0.00 0.00 0.00 31 903.5
20260506083959 20 0 0.0 0.0 0.00 0.00 0.00 32 903.6
20260506081858 19 0 0.0 0.0 0.00 0.00 0.00 32 903.8
20260506080825 19 0 0.0 0.0 0.00 0.00 0.00 32 903.7
20260506072730 19 0 0.0 0.0 0.00 0.00 0.00 32 903.6
20260506070654 19 0 0.0 0.0 0.00 0.00 0.00 30 903.6
20260506060456 20 0 0.0 0.0 0.00 0.00 0.00 32 903.8
20260506051303 20 0 0.0 0.0 0.00 0.00 0.00 32 903.9
20260506050244 19 0 0.0 0.0 0.00 0.00 0.00 32 903.9
20260506044128 18 0 0.0 0.0 0.00 0.00 0.00 32 904.0
20260506043113 20 0 0.0 0.0 0.00 0.00 0.00 31 904.0
20260506042022 20 0 0.0 0.0 0.00 0.00 0.00 32 904.2
20260506040947 19 0 0.0 0.0 0.00 0.00 0.00 32 904.3
20260506035921 18 0 0.0 0.0 0.00 0.00 0.00 32 904.3
20260506034845 19 0 0.0 0.0 0.00 0.00 0.00 30 904.4
20260506033820 20 0 0.0 0.0 0.00 0.00 0.00 32 904.6
20260506032811 19 0 0.0 0.0 0.00 0.00 0.00 32 904.7
20260506031756 19 0 0.0 0.0 0.00 0.00 0.00 32 904.7
20260506030722 19 0 0.0 0.0 0.00 0.00 0.00 32 904.9
20260506025650 20 0 0.0 0.0 0.00 0.00 0.00 32 905.0
20260506024618 20 0 0.0 0.0 0.00 0.00 0.00 32 905.2
20260506022558 19 0 0.0 0.0 0.00 0.00 0.00 32 905.2
20260506022555 19 0 0.0 0.0 0.00 0.00 0.00 32 905.2
20260506021505 19 0 0.0 0.0 0.00 0.00 0.00 30 905.4
20260506020429 20 0 0.0 0.0 0.00 0.00 0.00 32 905.4
20260506015353 20 0 0.0 0.0 0.00 0.00 0.00 32 905.5
20260506013251 18 0 0.0 0.0 0.00 0.00 0.00 32 905.8
20260506012231 19 0 0.0 0.0 0.00 0.00 0.00 29 905.6
20260506012229 19 0 0.0 0.0 0.00 0.00 0.00 29 905.7
20260506011215 20 0 0.0 0.0 0.00 0.00 0.00 32 905.6
20260506010113 19 0 0.0 0.0 0.00 0.00 0.00 32 905.7
20260506005049 19 0 0.0 0.0 0.00 0.00 0.00 33 905.6
20260506004013 19 0 0.0 0.0 0.00 0.00 0.00 32 905.9
20260506003001 20 0 0.0 0.0 0.00 0.00 0.00 32 906.1
20260506001950 20 0 0.0 0.0 0.00 0.00 0.00 32 906.2
20260506000847 19 0 0.0 0.0 0.00 0.00 0.00 33 906.0
20260505235835 18 0 0.0 0.0 0.00 0.00 0.00 33 906.0
20260505234746 20 0 0.0 0.0 0.00 0.00 0.00 31 906.1
20260505233733 20 0 0.0 0.0 0.00 0.00 0.00 32 906.3
20260505232709 19 0 0.0 0.0 0.00 0.00 0.00 32 906.5
20260505231711 19 0 0.0 0.0 0.00 0.00 0.00 33 906.3
20260505231709 19 0 0.0 0.0 0.00 0.00 0.00 33 906.4
20260505230632 18 0 0.0 0.0 0.00 0.00 0.00 32 906.4
20260505225613 20 0 0.0 0.0 0.00 0.00 0.00 32 906.5
20260505224519 20 0 0.0 0.0 0.00 0.00 0.00 32 906.5
20260505223510 19 0 0.0 0.0 0.00 0.00 0.00 32 906.4
20260505222442 19 0 0.0 0.0 0.00 0.00 0.00 33 906.5
20260505221430 19 0 0.0 0.0 0.00 0.00 0.00 30 906.6
20260505220410 20 0 0.0 0.0 0.00 0.00 0.00 32 906.7
20260505215325 19 0 0.0 0.0 0.00 0.00 0.00 32 906.6
20260505214301 19 0 0.0 0.0 0.00 0.00 0.00 33 906.7
20260505212227 20 0 0.0 0.0 0.00 0.00 0.00 31 906.6
20260505211202 20 0 0.0 0.0 0.00 0.00 0.00 32 906.8
20260505210135 19 0 0.0 0.0 0.00 0.00 0.00 32 906.8
20260505205128 19 0 0.0 0.0 0.00 0.00 0.00 33 906.6
20260505204102 19 0 0.0 0.0 0.00 0.00 0.00 31 906.6
20260505204100 19 0 0.0 0.0 0.00 0.00 0.00 31 906.7
20260505203021 20 0 0.0 0.0 0.00 0.00 0.00 32 906.6
20260505201955 19 0 0.0 0.0 0.00 0.00 0.00 32 906.8
20260505200944 19 0 0.0 0.0 0.00 0.00 0.00 33 906.7
20260505194856 20 0 0.0 0.0 0.00 0.00 0.00 32 907.0
20260505193814 20 0 0.0 0.0 0.00 0.00 0.00 33 906.9
20260505192727 19 0 0.0 0.0 0.00 0.00 0.00 33 906.9
20260505191718 18 0 0.0 0.0 0.00 0.00 0.00 33 906.7
20260505190638 20 0 0.0 0.0 0.00 0.00 0.00 32 906.6
20260505185626 20 0 0.0 0.0 0.00 0.00 0.00 33 906.4
20260505184601 19 0 0.0 0.0 0.00 0.00 0.00 33 906.6
20260505183535 19 0 0.0 0.0 0.00 0.00 0.00 32 906.5
20260505182514 20 0 0.0 0.0 0.00 0.00 0.00 32 906.3
20260505181344 20 0 0.0 0.0 0.00 0.00 0.00 32 906.0
20260505180320 19 0 0.0 0.0 0.00 0.00 0.00 33 905.8
20260505175255 19 0 0.0 0.0 0.00 0.00 0.00 32 905.5
20260505174230 20 0 0.0 0.0 0.00 0.00 0.00 31 905.5
20260505173140 19 0 0.0 0.0 0.00 0.00 0.00 32 905.5
20260505171104 19 0 0.0 0.0 0.00 0.00 0.00 30 905.3
20260505170032 20 0 0.0 0.0 0.00 0.00 0.00 32 905.2
20260505170030 20 0 0.0 0.0 0.00 0.00 0.00 32 905.2
20260505165003 19 0 0.0 0.0 0.00 0.00 0.00 32 905.0
20260505163911 19 0 0.0 0.0 0.00 0.00 0.00 32 905.0
20260505162826 19 0 0.0 0.0 0.00 0.00 0.00 30 905.0
20260505162824 19 0 0.0 0.0 0.00 0.00 0.00 30 905.1
20260505160706 19 0 0.0 0.0 0.00 0.00 0.00 32 904.8
20260505152443 19 0 0.0 0.0 0.00 0.00 0.00 30 904.8
20260505151442 20 0 0.0 0.0 0.00 0.00 0.00 32 904.8
20260505150416 19 0 0.0 0.0 0.00 0.00 0.00 32 904.8
20260505140152 20 0 0.0 0.0 0.00 0.00 0.00 32 904.9